FLOCK 4V-19 (46609 NORAD) Tracking and Keplerian Element Data

This shows tracking and keplerian element data for the satellite.

Feedback or suggestion? Click here.




ElementValue
Catalog46609
NameFLOCK 4V-19
Epoch Orbit323
Epoch Day304.7880635
Epoch Year2020
RAAN16.8653
Inclination97.4576
Eccentricity0.0004481
Argument of Perigee41.669
Mean Anonmoly318.4884
Mean Motion15.1581626
Decay Rate7.97E-06
L11 46609U 20061BH 20304.78806350 .00000797 00000-0 45127-4 0 9996
L22 46609 97.4576 16.8653 0004481 41.6690 318.4884 15.15816260 3236

Live tracking and technical data element details for FLOCK 4V-19 (NORAD 46609). FLOCK 4V-19 can be tracked NOW for your location showing map with azimuth and elevation plus other details from your city location.

Track the satellite on the map from your city or location and see movement details for azimuth, elevation, latitude, longitude, range, height, and movement on the map or in text.







IsCatalogInMostPopularTable: catalog: 46609, numindb: 2
Update: records affected: 1



GetName: 46609 FLOCK 4V-19

Hit Count: updated at: Sat, 31 Oct 2020 10:34:07 GMT